TimeCST,TemperatureF,Dew PointF,Humidity,Sea Level PressureIn,VisibilityMPH,Wind Direction,Wind SpeedMPH,Gust SpeedMPH,PrecipitationIn,Events,Conditions,WindDirDegrees,DateUTC
12:53 AM,60.1,52.0,75,30.13,10.0,SSE,5.8,-,N/A,,Clear,150,2012-11-11 06:53:00
1:53 AM,59.0,52.0,78,30.12,10.0,ESE,5.8,-,N/A,,Clear,120,2012-11-11 07:53:00
2:53 AM,59.0,53.1,81,30.12,10.0,SE,6.9,-,N/A,,Clear,130,2012-11-11 08:53:00
3:53 AM,60.1,55.0,83,30.11,10.0,SE,10.4,-,N/A,,Clear,130,2012-11-11 09:53:00
4:53 AM,60.1,55.9,86,30.12,10.0,SE,6.9,-,N/A,,Clear,130,2012-11-11 10:53:00
5:53 AM,59.0,57.0,93,30.12,9.0,SE,9.2,-,N/A,,Clear,130,2012-11-11 11:53:00
6:53 AM,60.1,57.0,90,30.14,8.0,SE,10.4,-,N/A,,Clear,130,2012-11-11 12:53:00
7:53 AM,62.1,57.9,86,30.15,10.0,SE,6.9,-,N/A,,Clear,140,2012-11-11 13:53:00
8:53 AM,66.0,57.9,75,30.15,10.0,SE,12.7,-,N/A,,Clear,140,2012-11-11 14:53:00
9:53 AM,70.0,57.9,65,30.15,10.0,SSE,15.0,-,N/A,,Clear,150,2012-11-11 15:53:00
10:53 AM,75.0,55.9,51,30.13,10.0,SSE,17.3,26.5,N/A,,Clear,150,2012-11-11 16:53:00
11:53 AM,77.0,55.9,48,30.10,10.0,South,16.1,24.2,N/A,,Mostly Cloudy,170,2012-11-11 17:53:00
12:53 PM,79.0,57.0,47,30.06,10.0,South,21.9,29.9,N/A,,Partly Cloudy,170,2012-11-11 18:53:00
1:53 PM,77.0,57.9,52,30.04,10.0,SSE,23.0,32.2,N/A,,Clear,150,2012-11-11 19:53:00
2:53 PM,77.0,57.0,50,30.02,10.0,SSE,19.6,31.1,N/A,,Partly Cloudy,160,2012-11-11 20:53:00
3:53 PM,75.9,59.0,56,30.04,10.0,SSE,20.7,27.6,N/A,,Overcast,160,2012-11-11 21:53:00
4:53 PM,73.9,59.0,59,30.04,10.0,SSE,16.1,24.2,N/A,,Scattered Clouds,150,2012-11-11 22:53:00
5:53 PM,73.0,57.9,59,30.04,10.0,SSE,19.6,25.3,N/A,,Partly Cloudy,150,2012-11-11 23:53:00
6:53 PM,72.0,57.9,61,30.05,10.0,SSE,13.8,25.3,N/A,,Overcast,150,2012-11-12 00:53:00
7:53 PM,71.1,59.0,66,30.07,10.0,SSE,16.1,25.3,N/A,,Overcast,150,2012-11-12 01:53:00
8:53 PM,70.0,57.9,65,30.07,10.0,SSE,16.1,26.5,N/A,,Mostly Cloudy,150,2012-11-12 02:53:00
9:36 PM,69.8,59.0,68,30.09,10.0,SSE,11.5,24.2,N/A,,Overcast,150,2012-11-12 03:36:00
9:53 PM,70.0,59.0,68,30.07,10.0,SSE,12.7,20.7,N/A,,Overcast,150,2012-11-12 03:53:00
10:53 PM,70.0,60.1,71,30.06,10.0,SSE,16.1,24.2,N/A,,Overcast,160,2012-11-12 04:53:00
11:53 PM,68.0,62.1,81,30.06,4.0,South,9.2,18.4,0.03,Rain,Heavy Rain,180,2012-11-12 05:53:00